Regional Weather Roundup
Issued by NWS Columbia, SC

Home | Current Version | Previous Version | Text Only | Print | Product List | Glossary On
Versions: 1 2 3 4 5 6 7 8 9 10 11 12 13 14 15 16 17 18 19 20 21 22 23 24 25 26 27
000
ASUS42 KCAE 211010
RWRCAE
REGIONAL WEATHER ROUNDUP
NATIONAL WEATHER SERVICE COLUMBIA SC
600 AM EDT MON APR 21 2014

NOTE: "FAIR" INDICATES FEW OR NO CLOUDS BELOW 12,000 FEET WITH NO
SIGNIFICANT WEATHER AND/OR OBSTRUCTIONS TO VISIBILITY.

NOT ALL STATIONS ARE QUALITY CONTROLLED BY THE NATIONAL
WEATHER SERVICE. USE DATA WITH CAUTION...ESPECIALLY
DEWPOINT OBSERVATIONS.

SCZ001>056-GAZ040-063>065-077-211100-
...UPSTATE SOUTH CAROLINA...

CITY           SKY/WX    TMP DP  RH WIND       PRES   REMARKS
ANDERSON       CLEAR     48  37  65 N3        30.17R
LIBERTY        FAIR      38  19  45 MISG      30.16S
SPARTANBURG    FAIR      46  39  76 N5        30.17S
CLEMSON        CLEAR     50  44  80 N7        30.18R
GREENVILLE     CLEAR     49  35  58 N8        30.18S
GREENWOOD      CLEAR     44  38  79 N5        30.17S
GREER          CLEAR     49  36  61 N5        30.16S
ROCK HILL      CLEAR     42  38  85 N7        30.16S
CHESTER        FAIR      46  41  81 N7        30.16F


...CENTRAL SOUTH CAROLINA...

CITY           SKY/WX    TMP DP  RH WIND       PRES   REMARKS
COLUMBIA APT   CLEAR     52  42  69 N6        30.11F
COLUMBIA OWENS CLEAR     52  41  66 CALM      30.12F
DARLINGTON     CLEAR     50  37  62 N9        30.13S
FLORENCE       CLEAR     52  39  61 N12       30.10S
MCENTIRE ANGB  CLEAR     52  41  64 N7        30.11S
ORANGEBURG     CLEAR     53  43  68 N6        30.10F
SUMTER SHAW    CLEAR     50  42  73 N9        30.09F
NEWBERRY       FAIR      45  41  87 N7        30.17S
AIKEN          FAIR      50  45  81 N3        30.15S
BARNWELL       FAIR      52  45  76 N7        30.11S
MANNING        FAIR      54  41  62 N5        30.09S
CAMDEN         FAIR      50  41  71 N8        30.13S
LANCASTER      FAIR      41  41 100 CALM      30.15S
WINNSBORO      FAIR      46  41  81 N7        30.13S


...EASTERN AND COASTAL SOUTH CAROLINA...

CITY           SKY/WX    TMP DP  RH WIND       PRES   REMARKS
MYRTLE BEACH   CLEAR     52  41  66 N14       30.06S
N MYRTLE BCH   PTCLDY    51  42  71 N9G20     30.05R
CONWAY         FAIR      50  43  76 N5        30.08S
MARION         FAIR      50  41  71 N8        30.10S
HARTSVILLE     FAIR      50  37  62 N9        30.12S
FLORENCE       CLEAR     52  39  61 N12       30.10S
DARLINGTON     CLEAR     50  37  62 N9        30.13S
CHARLESTON APT CLEAR     56  44  64 N10       30.07R
MOUNT PLEASANT FAIR     N/A N/A N/A N7        30.06R
WALTERBORO     SUNNY     54  50  87 N3        30.08S
BEAUFORT       CLEAR     57  48  72 NE7       30.07S


...EASTERN GEORGIA...

CITY           SKY/WX    TMP DP  RH WIND       PRES   REMARKS
AUGUSTA BUSH F CLEAR     47  42  83 CALM      30.12S
AUGUSTA DANIEL CLEAR     51  42  71 NW8       30.13S
THOMSON        CLEAR     41  41 100 CALM      30.19R
WASHINGTON     FAIR      46  43  87 N3        30.15R
CLAXTON        FAIR     N/A N/A N/A CALM      30.09S
SYLVANIA       SUNNY     55  48  77 N6        30.10S
STATESBORO     CLEAR     51  48  92 N5        30.09S
SAVANNAH       CLEAR     54  49  83 N3        30.08S


...SOUTHERN NORTH CAROLINA...

CITY           SKY/WX    TMP DP  RH WIND       PRES   REMARKS
CHARLOTTE      CLEAR     45  38  76 N8        30.16F
MONROE         CLEAR     46  36  68 N8        30.14F
WADESBORO      SUNNY     43  36  74 N3        30.15S
ROCKINGHAM       N/A     47  35  63 N7        30.14R
RUTHERFORDTON  CLEAR     39  37  92 CALM      30.19R
ASHEVILLE      CLEAR     38  35  89 CALM      30.20R

$$



USA.gov is the U.S. government's official web portal to all federal, state and local government web resources and services.